STARLINK-1831 (46728 NORAD) Tracking and Keplerian Element Data

This shows tracking and keplerian element data for the satellite.

Feedback or suggestion? Click here.




ElementValue
Catalog46728
NameSTARLINK-1831
Epoch Orbit184
Epoch Day327.91667824
Epoch Year2020
RAAN294.9895
Inclination53.0551
Eccentricity9.03E-05
Argument of Perigee93.5904
Mean Anonmoly94.2505
Mean Motion15.6277465
Decay Rate0.00078204
L11 46728U 20073BL 20327.91667824 .00078204 00000-0 85102-3 0 9996
L22 46728 53.0551 294.9895 0000903 93.5904 94.2505 15.62774650 1847

Live tracking and technical data element details for STARLINK-1831 (NORAD 46728). STARLINK-1831 can be tracked NOW for your location showing map with azimuth and elevation plus other details from your city location.

Track the satellite on the map from your city or location and see movement details for azimuth, elevation, latitude, longitude, range, height, and movement on the map or in text.







IsCatalogInMostPopularTable: catalog: 46728, numindb: 8
Update: records affected: 1



GetName: 46728 STARLINK-1831

Hit Count: updated at: Tue, 24 Nov 2020 12:14:14 GMT